Year,Month,Day,Hour,Minute,Value (Times are PST for temperature in C)
2016,05,04,00,00,11.60
2016,05,04,00,01,11.60
2016,05,04,00,02,11.60
2016,05,04,00,03,11.60
2016,05,04,00,04,11.60
2016,05,04,00,05,11.60
2016,05,04,00,06,11.60
2016,05,04,00,07,11.50
2016,05,04,00,08,11.50
2016,05,04,00,09,11.50
2016,05,04,00,10,11.50
2016,05,04,00,11,11.50
2016,05,04,00,12,11.50
2016,05,04,00,13,11.50
2016,05,04,00,14,11.40
2016,05,04,00,15,11.40
2016,05,04,00,16,11.40
2016,05,04,00,17,11.40
2016,05,04,00,18,11.40
2016,05,04,00,19,11.40
2016,05,04,00,20,11.30
2016,05,04,00,21,11.30
2016,05,04,00,22,11.30
2016,05,04,00,23,11.20
2016,05,04,00,24,11.20
2016,05,04,00,25,11.10
2016,05,04,00,26,11.10
2016,05,04,00,27,11.00
2016,05,04,00,28,10.90
2016,05,04,00,29,10.90
2016,05,04,00,30,10.90
2016,05,04,00,31,10.80
2016,05,04,00,32,10.80
2016,05,04,00,33,10.80
2016,05,04,00,34,10.80
2016,05,04,00,35,10.80
2016,05,04,00,36,10.80
2016,05,04,00,37,10.80
2016,05,04,00,38,10.70
2016,05,04,00,39,10.70
2016,05,04,00,40,10.70
2016,05,04,00,41,10.70
2016,05,04,00,42,10.60
2016,05,04,00,43,10.60
2016,05,04,00,44,10.60
2016,05,04,00,45,10.60
2016,05,04,00,46,10.60
2016,05,04,00,47,10.60
2016,05,04,00,48,10.50
2016,05,04,00,49,10.50
2016,05,04,00,50,10.50
2016,05,04,00,51,10.40
2016,05,04,00,52,10.40
2016,05,04,00,53,10.40
2016,05,04,00,54,10.40
2016,05,04,00,55,10.40
2016,05,04,00,56,10.40
2016,05,04,00,57,10.40
2016,05,04,00,58,10.40
2016,05,04,00,59,10.30
2016,05,04,01,00,10.30
2016,05,04,01,01,10.30
2016,05,04,01,02,10.30
2016,05,04,01,03,10.30
2016,05,04,01,04,10.30
2016,05,04,01,05,10.20
2016,05,04,01,06,10.20
2016,05,04,01,07,10.20
2016,05,04,01,08,10.20
2016,05,04,01,09,10.20
2016,05,04,01,10,10.20
2016,05,04,01,11,10.20
2016,05,04,01,12,10.20
2016,05,04,01,13,10.20
2016,05,04,01,14,10.20
2016,05,04,01,15,10.20
2016,05,04,01,16,10.20
2016,05,04,01,17,10.30
2016,05,04,01,18,10.30
2016,05,04,01,19,10.30
2016,05,04,01,20,10.30
2016,05,04,01,21,10.30
2016,05,04,01,22,10.30
2016,05,04,01,23,10.30
2016,05,04,01,24,10.30
2016,05,04,01,25,10.30
2016,05,04,01,26,10.30
2016,05,04,01,27,10.30
2016,05,04,01,28,10.30
2016,05,04,01,29,10.30
2016,05,04,01,30,10.30
2016,05,04,01,31,10.30
2016,05,04,01,32,10.30
2016,05,04,01,33,10.30
2016,05,04,01,34,10.30
2016,05,04,01,35,10.20
2016,05,04,01,36,10.20
2016,05,04,01,37,10.20
2016,05,04,01,38,10.30
2016,05,04,01,39,10.30
2016,05,04,01,40,10.30
2016,05,04,01,41,10.30
2016,05,04,01,42,10.30
2016,05,04,01,43,10.30
2016,05,04,01,44,10.30
2016,05,04,01,45,10.30
2016,05,04,01,46,10.30
2016,05,04,01,47,10.30
2016,05,04,01,48,10.30
2016,05,04,01,49,10.30
2016,05,04,01,50,10.30
2016,05,04,01,51,10.30
2016,05,04,01,52,10.30
2016,05,04,01,53,10.30
2016,05,04,01,54,10.30
2016,05,04,01,55,10.30
2016,05,04,01,56,10.40
2016,05,04,01,57,10.40
2016,05,04,01,58,10.40
2016,05,04,01,59,10.40
2016,05,04,02,00,10.40
2016,05,04,02,01,10.40
2016,05,04,02,02,10.40
2016,05,04,02,03,10.40
2016,05,04,02,04,10.40
2016,05,04,02,05,10.40
2016,05,04,02,06,10.40
2016,05,04,02,07,10.40
2016,05,04,02,08,10.40
2016,05,04,02,09,10.40
2016,05,04,02,10,10.40
2016,05,04,02,11,10.30
2016,05,04,02,12,10.40
2016,05,04,02,13,10.40
2016,05,04,02,14,10.40
2016,05,04,02,15,10.40
2016,05,04,02,16,10.40
2016,05,04,02,17,10.40
2016,05,04,02,18,10.40
2016,05,04,02,19,10.40
2016,05,04,02,20,10.40
2016,05,04,02,21,10.40
2016,05,04,02,22,10.40
2016,05,04,02,23,10.40
2016,05,04,02,24,10.40
2016,05,04,02,25,10.40
2016,05,04,02,26,10.40
2016,05,04,02,27,10.40
2016,05,04,02,28,10.40
2016,05,04,02,29,10.40
2016,05,04,02,30,10.40
2016,05,04,02,31,10.40
2016,05,04,02,32,10.40
2016,05,04,02,33,10.40
2016,05,04,02,34,10.40
2016,05,04,02,35,10.40
2016,05,04,02,36,10.40
2016,05,04,02,37,10.40
2016,05,04,02,38,10.40
2016,05,04,02,39,10.40
2016,05,04,02,40,10.40
2016,05,04,02,41,10.40
2016,05,04,02,42,10.40
2016,05,04,02,43,10.40
2016,05,04,02,44,10.40
2016,05,04,02,45,10.40
2016,05,04,02,46,10.40
2016,05,04,02,47,10.40
2016,05,04,02,48,10.40
2016,05,04,02,49,10.40
2016,05,04,02,50,10.40
2016,05,04,02,51,10.40
2016,05,04,02,52,10.40
2016,05,04,02,53,10.40
2016,05,04,02,54,10.40
2016,05,04,02,55,10.40
2016,05,04,02,56,10.40
2016,05,04,02,57,10.40
2016,05,04,02,58,10.40
2016,05,04,02,59,10.40
2016,05,04,03,00,10.40
2016,05,04,03,01,10.50
2016,05,04,03,02,10.50
2016,05,04,03,03,10.50
2016,05,04,03,04,10.50
2016,05,04,03,05,10.50
2016,05,04,03,06,10.50
2016,05,04,03,07,10.50
2016,05,04,03,08,10.50
2016,05,04,03,09,10.50
2016,05,04,03,10,10.50
2016,05,04,03,11,10.50
2016,05,04,03,12,10.50
2016,05,04,03,13,10.50
2016,05,04,03,14,10.50
2016,05,04,03,15,10.50
2016,05,04,03,16,10.50
2016,05,04,03,17,10.50
2016,05,04,03,18,10.50
2016,05,04,03,19,10.50
2016,05,04,03,20,10.40
2016,05,04,03,21,10.40
2016,05,04,03,22,10.40
2016,05,04,03,23,10.40
2016,05,04,03,24,10.50
2016,05,04,03,25,10.50
2016,05,04,03,26,10.50
2016,05,04,03,27,10.50
2016,05,04,03,28,10.50
2016,05,04,03,29,10.50
2016,05,04,03,30,10.40
2016,05,04,03,31,10.40
2016,05,04,03,32,10.40
2016,05,04,03,33,10.40
2016,05,04,03,34,10.40
2016,05,04,03,35,10.40
2016,05,04,03,36,10.40
2016,05,04,03,37,10.40
2016,05,04,03,38,10.40
2016,05,04,03,39,10.30
2016,05,04,03,40,10.30
2016,05,04,03,41,10.30
2016,05,04,03,42,10.30
2016,05,04,03,43,10.30
2016,05,04,03,44,10.30
2016,05,04,03,45,10.30
2016,05,04,03,46,10.30
2016,05,04,03,47,10.30
2016,05,04,03,48,10.30
2016,05,04,03,49,10.30
2016,05,04,03,50,10.30
2016,05,04,03,51,10.30
2016,05,04,03,52,10.30
2016,05,04,03,53,10.20
2016,05,04,03,54,10.20
2016,05,04,03,55,10.20
2016,05,04,03,56,10.20
2016,05,04,03,57,10.20
2016,05,04,03,58,10.20
2016,05,04,03,59,10.30
2016,05,04,04,00,10.20
2016,05,04,04,01,10.30
2016,05,04,04,02,10.30
2016,05,04,04,03,10.30
2016,05,04,04,04,10.30
2016,05,04,04,05,10.30
2016,05,04,04,06,10.20
2016,05,04,04,07,10.20
2016,05,04,04,08,10.20
2016,05,04,04,09,10.20
2016,05,04,04,10,10.20
2016,05,04,04,11,10.20
2016,05,04,04,12,10.20
2016,05,04,04,13,10.20
2016,05,04,04,14,10.10
2016,05,04,04,15,10.10
2016,05,04,04,16,10.10
2016,05,04,04,17,10.00
2016,05,04,04,18,10.00
2016,05,04,04,19,9.90
2016,05,04,04,20,9.90
2016,05,04,04,21,9.90
2016,05,04,04,22,9.80
2016,05,04,04,23,9.80
2016,05,04,04,24,9.80
2016,05,04,04,25,9.80
2016,05,04,04,26,9.70
2016,05,04,04,27,9.70
2016,05,04,04,28,9.70
2016,05,04,04,29,9.60
2016,05,04,04,30,9.60
2016,05,04,04,31,9.60
2016,05,04,04,32,9.60
2016,05,04,04,33,9.60
2016,05,04,04,34,9.50
2016,05,04,04,35,9.50
2016,05,04,04,36,9.40
2016,05,04,04,37,9.40
2016,05,04,04,38,9.40
2016,05,04,04,39,9.40
2016,05,04,04,40,9.30
2016,05,04,04,41,9.30
2016,05,04,04,42,9.30
2016,05,04,04,43,9.30
2016,05,04,04,44,9.30
2016,05,04,04,45,9.20
2016,05,04,04,46,9.20
2016,05,04,04,47,9.20
2016,05,04,04,48,9.20
2016,05,04,04,49,9.10
2016,05,04,04,50,9.10
2016,05,04,04,51,9.10
2016,05,04,04,52,9.10
2016,05,04,04,53,9.00
2016,05,04,04,54,9.00
2016,05,04,04,55,8.90
2016,05,04,04,56,8.90
2016,05,04,04,57,8.90
2016,05,04,04,58,8.90
2016,05,04,04,59,8.80
2016,05,04,05,00,8.80
2016,05,04,05,01,8.80
2016,05,04,05,02,8.80
2016,05,04,05,03,8.80
2016,05,04,05,04,8.80
2016,05,04,05,05,8.70
2016,05,04,05,06,8.70
2016,05,04,05,07,8.70
2016,05,04,05,08,8.70
2016,05,04,05,09,8.70
2016,05,04,05,10,8.70
2016,05,04,05,11,8.70
2016,05,04,05,12,8.60
2016,05,04,05,13,8.60
2016,05,04,05,14,8.60
2016,05,04,05,15,8.60
2016,05,04,05,16,8.60
2016,05,04,05,17,8.50
2016,05,04,05,18,8.50
2016,05,04,05,19,8.40
2016,05,04,05,20,8.40
2016,05,04,05,21,8.40
2016,05,04,05,22,8.40
2016,05,04,05,23,8.40
2016,05,04,05,24,8.40
2016,05,04,05,25,8.30
2016,05,04,05,26,8.30
2016,05,04,05,27,8.30
2016,05,04,05,28,8.30
2016,05,04,05,29,8.30
2016,05,04,05,30,8.20
2016,05,04,05,31,8.20
2016,05,04,05,32,8.20
2016,05,04,05,33,8.10
2016,05,04,05,34,8.10
2016,05,04,05,35,8.10
2016,05,04,05,36,8.10
2016,05,04,05,37,8.10
2016,05,04,05,38,8.10
2016,05,04,05,39,8.00
2016,05,04,05,40,8.00
2016,05,04,05,41,8.00
2016,05,04,05,42,8.00
2016,05,04,05,43,8.00
2016,05,04,05,44,8.00
2016,05,04,05,45,7.90
2016,05,04,05,46,7.90
2016,05,04,05,47,7.90
2016,05,04,05,48,7.90
2016,05,04,05,49,8.00
2016,05,04,05,50,8.00
2016,05,04,05,51,8.00
2016,05,04,05,52,8.00
2016,05,04,05,53,8.10
2016,05,04,05,54,8.10
2016,05,04,05,55,8.10
2016,05,04,05,56,8.10
2016,05,04,05,57,8.20
2016,05,04,05,58,8.20
2016,05,04,05,59,8.20
2016,05,04,06,00,8.20
2016,05,04,06,01,8.30
2016,05,04,06,02,8.30
2016,05,04,06,03,8.30
2016,05,04,06,04,8.30
2016,05,04,06,05,8.20
2016,05,04,06,06,8.20
2016,05,04,06,07,8.20
2016,05,04,06,08,8.20
2016,05,04,06,09,8.20
2016,05,04,06,10,8.10
2016,05,04,06,11,8.10
2016,05,04,06,12,8.10
2016,05,04,06,13,8.10
2016,05,04,06,14,8.10
2016,05,04,06,15,8.10
2016,05,04,06,16,8.10
2016,05,04,06,17,8.20
2016,05,04,06,18,8.20
2016,05,04,06,19,8.30
2016,05,04,06,20,8.30
2016,05,04,06,21,8.30
2016,05,04,06,22,8.40
2016,05,04,06,23,8.40
2016,05,04,06,24,8.40
2016,05,04,06,25,8.50
2016,05,04,06,26,8.50
2016,05,04,06,27,8.60
2016,05,04,06,28,8.60
2016,05,04,06,29,8.60
2016,05,04,06,30,8.60
2016,05,04,06,31,8.60
2016,05,04,06,32,8.60
2016,05,04,06,33,8.60
2016,05,04,06,34,8.60
2016,05,04,06,35,8.60
2016,05,04,06,36,8.60
2016,05,04,06,37,8.70
2016,05,04,06,38,8.70
2016,05,04,06,39,8.70
2016,05,04,06,40,8.70
2016,05,04,06,41,8.70
2016,05,04,06,42,8.70
2016,05,04,06,43,8.70
2016,05,04,06,44,8.80
2016,05,04,06,45,8.80
2016,05,04,06,46,8.80
2016,05,04,06,47,8.80
2016,05,04,06,48,8.80
2016,05,04,06,49,8.80
2016,05,04,06,50,8.80
2016,05,04,06,51,8.80
2016,05,04,06,52,8.80
2016,05,04,06,53,8.80
2016,05,04,06,54,8.80
2016,05,04,06,55,8.80
2016,05,04,06,56,8.90
2016,05,04,06,57,8.90
2016,05,04,06,58,8.90
2016,05,04,06,59,8.90
2016,05,04,07,00,8.90
2016,05,04,07,01,9.00
2016,05,04,07,02,9.00
2016,05,04,07,03,9.00
2016,05,04,07,04,9.10
2016,05,04,07,05,9.10
2016,05,04,07,06,9.10
2016,05,04,07,07,9.10
2016,05,04,07,08,9.20
2016,05,04,07,09,9.20
2016,05,04,07,10,9.20
2016,05,04,07,11,9.20
2016,05,04,07,12,9.20
2016,05,04,07,13,9.20
2016,05,04,07,14,9.20
2016,05,04,07,15,9.30
2016,05,04,07,16,9.30
2016,05,04,07,17,9.30
2016,05,04,07,18,9.30
2016,05,04,07,19,9.30
2016,05,04,07,20,9.30
2016,05,04,07,21,9.30
2016,05,04,07,22,9.30
2016,05,04,07,23,9.30
2016,05,04,07,24,9.30
2016,05,04,07,25,9.40
2016,05,04,07,26,9.30
2016,05,04,07,27,9.30
2016,05,04,07,28,9.30
2016,05,04,07,29,9.30
2016,05,04,07,30,9.40
2016,05,04,07,31,9.40
2016,05,04,07,32,9.40
2016,05,04,07,33,9.40
2016,05,04,07,34,9.40
2016,05,04,07,35,9.40
2016,05,04,07,36,9.40
2016,05,04,07,37,9.40
2016,05,04,07,38,9.40
2016,05,04,07,39,9.50
2016,05,04,07,40,9.50
2016,05,04,07,41,9.50
2016,05,04,07,42,9.60
2016,05,04,07,43,9.60
2016,05,04,07,44,9.60
2016,05,04,07,45,9.70
2016,05,04,07,46,9.70
2016,05,04,07,47,9.70
2016,05,04,07,48,9.70
2016,05,04,07,49,9.70
2016,05,04,07,50,9.80
2016,05,04,07,51,9.80
2016,05,04,07,52,9.80
2016,05,04,07,53,9.80
2016,05,04,07,54,9.80
2016,05,04,07,55,9.90
2016,05,04,07,56,9.90
2016,05,04,07,57,9.90
2016,05,04,07,58,9.90
2016,05,04,07,59,9.90
2016,05,04,08,00,9.90
2016,05,04,08,01,10.00
2016,05,04,08,02,10.00
2016,05,04,08,03,10.00
2016,05,04,08,04,10.10
2016,05,04,08,05,10.10
2016,05,04,08,06,10.10
2016,05,04,08,07,10.10
2016,05,04,08,08,10.20
2016,05,04,08,09,10.20
2016,05,04,08,10,10.20
2016,05,04,08,11,10.20
2016,05,04,08,12,10.30
2016,05,04,08,13,10.30
2016,05,04,08,14,10.30
2016,05,04,08,15,10.40
2016,05,04,08,16,10.40
2016,05,04,08,17,10.50
2016,05,04,08,18,10.60
2016,05,04,08,19,10.70
2016,05,04,08,20,10.70
2016,05,04,08,21,10.80
2016,05,04,08,22,10.80
2016,05,04,08,23,10.80
2016,05,04,08,24,10.90
2016,05,04,08,25,10.90
2016,05,04,08,26,10.90
2016,05,04,08,27,10.90
2016,05,04,08,28,11.00
2016,05,04,08,29,11.00
2016,05,04,08,30,11.00
2016,05,04,08,31,11.00
2016,05,04,08,32,11.00
2016,05,04,08,33,11.10
2016,05,04,08,34,11.10
2016,05,04,08,35,11.00
2016,05,04,08,36,11.00
2016,05,04,08,37,11.00
2016,05,04,08,38,11.00
2016,05,04,08,39,11.00
2016,05,04,08,40,11.00
2016,05,04,08,41,11.10
2016,05,04,08,42,11.10
2016,05,04,08,43,11.10
2016,05,04,08,44,11.10
2016,05,04,08,45,11.20
2016,05,04,08,46,11.20
2016,05,04,08,47,11.30
2016,05,04,08,48,11.30
2016,05,04,08,49,11.40
2016,05,04,08,50,11.40
2016,05,04,08,51,11.60
2016,05,04,08,52,11.60
2016,05,04,08,53,11.70
2016,05,04,08,54,11.70
2016,05,04,08,55,11.80
2016,05,04,08,56,11.80
2016,05,04,08,57,11.90
2016,05,04,08,58,11.90
2016,05,04,08,59,12.00
2016,05,04,09,00,12.10
2016,05,04,09,01,12.20
2016,05,04,09,02,12.20
2016,05,04,09,03,12.20
2016,05,04,09,04,12.20
2016,05,04,09,05,12.30
2016,05,04,09,06,12.30
2016,05,04,09,07,12.30
2016,05,04,09,08,12.40
2016,05,04,09,09,12.40
2016,05,04,09,10,12.50
2016,05,04,09,11,12.50
2016,05,04,09,12,12.50
2016,05,04,09,13,12.60
2016,05,04,09,14,12.60
2016,05,04,09,15,12.60
2016,05,04,09,16,12.60
2016,05,04,09,17,12.60
2016,05,04,09,18,12.60
2016,05,04,09,19,12.60
2016,05,04,09,20,12.70
2016,05,04,09,21,12.70
2016,05,04,09,22,12.70
2016,05,04,09,23,12.80
2016,05,04,09,24,12.80
2016,05,04,09,25,12.80
2016,05,04,09,26,12.90
2016,05,04,09,27,12.90
2016,05,04,09,28,12.90
2016,05,04,09,29,13.00
2016,05,04,09,30,13.10
2016,05,04,09,31,13.00
2016,05,04,09,32,13.00
2016,05,04,09,33,13.00
2016,05,04,09,34,13.10
2016,05,04,09,35,13.10
2016,05,04,09,36,13.20
2016,05,04,09,37,13.20
2016,05,04,09,38,13.30
2016,05,04,09,39,13.30
2016,05,04,09,40,13.40
2016,05,04,09,41,13.60
2016,05,04,09,42,13.70
2016,05,04,09,43,13.80
2016,05,04,09,44,13.80
2016,05,04,09,45,13.90
2016,05,04,09,46,13.90
2016,05,04,09,47,13.90
2016,05,04,09,48,13.90
2016,05,04,09,49,13.90
2016,05,04,09,50,13.80
2016,05,04,09,51,13.80
2016,05,04,09,52,13.70
2016,05,04,09,53,13.70
2016,05,04,09,54,13.80
2016,05,04,09,55,13.80
2016,05,04,09,56,13.80
2016,05,04,09,57,13.80
2016,05,04,09,58,13.80
2016,05,04,09,59,13.70
2016,05,04,10,00,13.70
2016,05,04,10,01,13.70
2016,05,04,10,02,13.70
2016,05,04,10,03,13.70
2016,05,04,10,04,13.70
2016,05,04,10,05,13.70
2016,05,04,10,06,13.70
2016,05,04,10,07,13.70
2016,05,04,10,08,13.80
2016,05,04,10,09,13.80
2016,05,04,10,10,13.90
2016,05,04,10,11,14.00
2016,05,04,10,12,14.10
2016,05,04,10,13,14.20
2016,05,04,10,14,14.30
2016,05,04,10,15,14.50
2016,05,04,10,16,14.70
2016,05,04,10,17,14.80
2016,05,04,10,18,14.90
2016,05,04,10,19,14.90
2016,05,04,10,20,15.10
2016,05,04,10,21,15.10
2016,05,04,10,22,15.10
2016,05,04,10,23,15.20
2016,05,04,10,24,15.20
2016,05,04,10,25,15.20
2016,05,04,10,26,15.20
2016,05,04,10,27,15.20
2016,05,04,10,28,15.20
2016,05,04,10,29,15.20
2016,05,04,10,30,15.00
2016,05,04,10,31,14.90
2016,05,04,10,32,14.80
2016,05,04,10,33,14.90
2016,05,04,10,34,14.90
2016,05,04,10,35,14.90
2016,05,04,10,36,14.90
2016,05,04,10,37,14.90
2016,05,04,10,38,14.90
2016,05,04,10,39,14.90
2016,05,04,10,40,15.00
2016,05,04,10,41,14.90
2016,05,04,10,42,14.80
2016,05,04,10,43,14.70
2016,05,04,10,44,14.70
2016,05,04,10,45,14.70
2016,05,04,10,46,14.70
2016,05,04,10,47,14.70
2016,05,04,10,48,14.80
2016,05,04,10,49,14.80
2016,05,04,10,50,14.80
2016,05,04,10,51,14.80
2016,05,04,10,52,14.80
2016,05,04,10,53,14.80
2016,05,04,10,54,14.80
2016,05,04,10,55,14.80
2016,05,04,10,56,14.80
2016,05,04,10,57,14.80
2016,05,04,10,58,14.70
2016,05,04,10,59,14.80
2016,05,04,11,00,14.80
2016,05,04,11,01,14.80
2016,05,04,11,02,14.80
2016,05,04,11,03,14.80
2016,05,04,11,04,14.90
2016,05,04,11,05,14.90
2016,05,04,11,06,14.90
2016,05,04,11,07,15.00
2016,05,04,11,08,15.00
2016,05,04,11,09,15.10
2016,05,04,11,10,15.10
2016,05,04,11,11,15.00
2016,05,04,11,12,14.90
2016,05,04,11,13,14.90
2016,05,04,11,14,15.00
2016,05,04,11,16,15.20
2016,05,04,11,17,15.30
2016,05,04,11,18,15.40
2016,05,04,11,19,15.40
2016,05,04,11,20,15.50
2016,05,04,11,21,15.40
2016,05,04,11,22,15.40
2016,05,04,11,23,15.30
2016,05,04,11,24,15.30
2016,05,04,11,25,15.30
2016,05,04,11,26,15.30
2016,05,04,11,27,15.40
2016,05,04,11,28,15.40
2016,05,04,11,29,15.50
2016,05,04,11,30,15.60
2016,05,04,11,31,15.60
2016,05,04,11,32,15.60
2016,05,04,11,33,15.70
2016,05,04,11,34,15.70
2016,05,04,11,35,15.80
2016,05,04,11,36,15.90
2016,05,04,11,37,15.90
2016,05,04,11,38,15.90
2016,05,04,11,39,16.10
2016,05,04,11,40,16.00
2016,05,04,11,41,15.90
2016,05,04,11,42,15.90
2016,05,04,11,43,15.90
2016,05,04,11,44,15.90
2016,05,04,11,45,16.00
2016,05,04,11,46,16.00
2016,05,04,11,47,16.10
2016,05,04,11,48,16.10
2016,05,04,11,49,16.20
2016,05,04,11,50,16.20
2016,05,04,11,51,16.20
2016,05,04,11,52,16.20
2016,05,04,11,53,16.20
2016,05,04,11,54,16.10
2016,05,04,11,55,16.10
2016,05,04,11,56,16.10
2016,05,04,11,57,15.90
2016,05,04,11,58,15.80
2016,05,04,11,59,15.90
2016,05,04,12,00,15.90
2016,05,04,12,01,15.90
2016,05,04,12,02,15.90
2016,05,04,12,03,15.90
2016,05,04,12,04,16.00
2016,05,04,12,05,16.10
2016,05,04,12,06,16.10
2016,05,04,12,07,16.20
2016,05,04,12,08,16.20
2016,05,04,12,09,16.20
2016,05,04,12,10,16.20
2016,05,04,12,11,16.30
2016,05,04,12,12,16.30
2016,05,04,12,13,16.30
2016,05,04,12,14,16.30
2016,05,04,12,15,16.30
2016,05,04,12,16,16.30
2016,05,04,12,17,16.30
2016,05,04,12,18,16.40
2016,05,04,12,19,16.30
2016,05,04,12,20,16.30
2016,05,04,12,21,16.40
2016,05,04,12,22,16.50
2016,05,04,12,23,16.50
2016,05,04,12,24,16.50
2016,05,04,12,25,16.50
2016,05,04,12,26,16.40
2016,05,04,12,27,16.40
2016,05,04,12,28,16.50
2016,05,04,12,29,16.50
2016,05,04,12,30,16.50
2016,05,04,12,31,16.60
2016,05,04,12,32,16.50
2016,05,04,12,33,16.60
2016,05,04,12,34,16.70
2016,05,04,12,35,16.70
2016,05,04,12,36,16.80
2016,05,04,12,37,16.80
2016,05,04,12,38,16.90
2016,05,04,12,39,16.80
2016,05,04,12,40,16.70
2016,05,04,12,41,16.70
2016,05,04,12,42,16.70
2016,05,04,12,43,16.70
2016,05,04,12,44,16.60
2016,05,04,12,45,16.50
2016,05,04,12,46,16.40
2016,05,04,12,47,16.50
2016,05,04,12,48,16.60
2016,05,04,12,49,16.80
2016,05,04,12,50,16.80
2016,05,04,12,51,17.00
2016,05,04,12,52,17.20
2016,05,04,12,53,17.30
2016,05,04,12,54,17.40
2016,05,04,12,55,17.60
2016,05,04,12,56,17.60
2016,05,04,12,57,17.70
2016,05,04,12,58,17.80
2016,05,04,12,59,17.80
2016,05,04,13,00,17.80
2016,05,04,13,01,17.80
2016,05,04,13,02,17.70
2016,05,04,13,03,17.70
2016,05,04,13,04,17.80
2016,05,04,13,05,17.80
2016,05,04,13,06,17.80
2016,05,04,13,07,17.80
2016,05,04,13,08,17.80
2016,05,04,13,09,17.70
2016,05,04,13,10,17.70
2016,05,04,13,11,17.70
2016,05,04,13,12,17.70
2016,05,04,13,13,17.60
2016,05,04,13,14,17.70
2016,05,04,13,15,17.70
2016,05,04,13,16,17.70
2016,05,04,13,17,17.70
2016,05,04,13,18,17.70
2016,05,04,13,19,17.80
2016,05,04,13,20,17.70
2016,05,04,13,21,17.70
2016,05,04,13,22,17.80
2016,05,04,13,23,17.80
2016,05,04,13,24,17.90
2016,05,04,13,25,17.90
2016,05,04,13,26,17.90
2016,05,04,13,27,17.90
2016,05,04,13,28,18.00
2016,05,04,13,29,18.10
2016,05,04,13,30,18.10
2016,05,04,13,31,18.10
2016,05,04,13,32,18.20
2016,05,04,13,33,18.20
2016,05,04,13,34,18.30
2016,05,04,13,35,18.40
2016,05,04,13,36,18.50
2016,05,04,13,37,18.40
2016,05,04,13,38,18.50
2016,05,04,13,39,18.60
2016,05,04,13,40,18.60
2016,05,04,13,41,18.60
2016,05,04,13,42,18.60
2016,05,04,13,43,18.70
2016,05,04,13,44,18.70
2016,05,04,13,45,18.80
2016,05,04,13,46,18.70
2016,05,04,13,47,18.70
2016,05,04,13,48,18.70
2016,05,04,13,49,18.80
2016,05,04,13,50,18.80
2016,05,04,13,51,18.90
2016,05,04,13,52,18.90
2016,05,04,13,53,18.90
2016,05,04,13,54,18.80
2016,05,04,13,55,18.80
2016,05,04,13,56,18.70
2016,05,04,13,57,18.70
2016,05,04,13,58,18.60
2016,05,04,13,59,18.40
2016,05,04,14,00,18.40
2016,05,04,14,01,18.40
2016,05,04,14,02,18.40
2016,05,04,14,04,18.40
2016,05,04,14,05,18.50
2016,05,04,14,06,18.60
2016,05,04,14,07,18.60
2016,05,04,14,08,18.70
2016,05,04,14,09,18.80
2016,05,04,14,10,18.80
2016,05,04,14,11,18.80
2016,05,04,14,12,18.80
2016,05,04,14,13,18.80
2016,05,04,14,14,18.80
2016,05,04,14,15,18.80
2016,05,04,14,16,18.90
2016,05,04,14,17,18.80
2016,05,04,14,18,18.90
2016,05,04,14,19,18.90
2016,05,04,14,20,19.00
2016,05,04,14,21,19.10
2016,05,04,14,22,19.20
2016,05,04,14,23,19.20
2016,05,04,14,24,19.20
2016,05,04,14,25,19.20
2016,05,04,14,26,19.20
2016,05,04,14,27,19.30
2016,05,04,14,28,19.30
2016,05,04,14,29,19.30
2016,05,04,14,30,19.40
2016,05,04,14,31,19.40
2016,05,04,14,32,19.30
2016,05,04,14,33,19.30
2016,05,04,14,34,19.20
2016,05,04,14,35,19.20
2016,05,04,14,36,19.10
2016,05,04,14,37,19.20
2016,05,04,14,38,19.30
2016,05,04,14,39,19.40
2016,05,04,14,40,19.40
2016,05,04,14,41,19.40
2016,05,04,14,42,19.40
2016,05,04,14,43,19.40
2016,05,04,14,44,19.50
2016,05,04,14,45,19.60
2016,05,04,14,46,19.60
2016,05,04,14,47,19.60
2016,05,04,14,48,19.70
2016,05,04,14,49,19.70
2016,05,04,14,50,19.70
2016,05,04,14,51,19.80
2016,05,04,14,52,19.80
2016,05,04,14,53,19.80
2016,05,04,14,54,19.90
2016,05,04,14,55,20.10
2016,05,04,14,56,20.10
2016,05,04,14,57,20.20
2016,05,04,14,58,20.30
2016,05,04,14,59,20.40
2016,05,04,15,00,20.30
2016,05,04,15,01,20.30
2016,05,04,15,02,20.20
2016,05,04,15,03,20.20
2016,05,04,15,04,20.30
2016,05,04,15,05,20.30
2016,05,04,15,06,20.20
2016,05,04,15,07,20.20
2016,05,04,15,08,20.20
2016,05,04,15,09,20.20
2016,05,04,15,10,20.10
2016,05,04,15,11,20.10
2016,05,04,15,12,20.10
2016,05,04,15,13,20.10
2016,05,04,15,14,20.10
2016,05,04,15,15,20.10
2016,05,04,15,16,20.20
2016,05,04,15,17,20.30
2016,05,04,15,18,20.30
2016,05,04,15,19,20.30
2016,05,04,15,20,20.30
2016,05,04,15,21,20.30
2016,05,04,15,22,20.30
2016,05,04,15,23,20.30
2016,05,04,15,24,20.30
2016,05,04,15,25,20.20
2016,05,04,15,26,20.20
2016,05,04,15,27,20.20
2016,05,04,15,28,20.30
2016,05,04,15,29,20.20
2016,05,04,15,30,20.30
2016,05,04,15,31,20.30
2016,05,04,15,32,20.30
2016,05,04,15,33,20.30
2016,05,04,15,34,20.30
2016,05,04,15,35,20.20
2016,05,04,15,36,20.20
2016,05,04,15,37,20.30
2016,05,04,15,38,20.30
2016,05,04,15,39,20.30
2016,05,04,15,40,20.30
2016,05,04,15,41,20.30
2016,05,04,15,42,20.40
2016,05,04,15,43,20.30
2016,05,04,15,44,20.40
2016,05,04,15,45,20.30
2016,05,04,15,46,20.40
2016,05,04,15,47,20.40
2016,05,04,15,48,20.40
2016,05,04,15,49,20.40
2016,05,04,15,50,20.40
2016,05,04,15,51,20.40
2016,05,04,15,52,20.40
2016,05,04,15,53,20.40
2016,05,04,15,54,20.40
2016,05,04,15,55,20.40
2016,05,04,15,56,20.40
2016,05,04,15,57,20.40
2016,05,04,15,58,20.40
2016,05,04,15,59,20.40
2016,05,04,16,00,20.40
2016,05,04,16,01,20.30
2016,05,04,16,02,20.30
2016,05,04,16,03,20.30
2016,05,04,16,04,20.20
2016,05,04,16,05,20.10
2016,05,04,16,06,20.10
2016,05,04,16,07,20.10
2016,05,04,16,08,20.10
2016,05,04,16,09,20.20
2016,05,04,16,10,20.20
2016,05,04,16,11,20.30
2016,05,04,16,12,20.40
2016,05,04,16,13,20.50
2016,05,04,16,14,20.60
2016,05,04,16,15,20.70
2016,05,04,16,16,20.70
2016,05,04,16,17,20.70
2016,05,04,16,18,20.60
2016,05,04,16,19,20.40
2016,05,04,16,20,20.40
2016,05,04,16,21,20.30
2016,05,04,16,22,20.40
2016,05,04,16,23,20.40
2016,05,04,16,24,20.60
2016,05,04,16,25,20.60
2016,05,04,16,26,20.70
2016,05,04,16,27,20.70
2016,05,04,16,28,20.60
2016,05,04,16,29,20.60
2016,05,04,16,30,20.60
2016,05,04,16,31,20.60
2016,05,04,16,32,20.60
2016,05,04,16,33,20.40
2016,05,04,16,34,20.50
2016,05,04,16,35,20.40
2016,05,04,16,36,20.40
2016,05,04,16,37,20.40
2016,05,04,16,38,20.40
2016,05,04,16,39,20.40
2016,05,04,16,40,20.60
2016,05,04,16,41,20.70
2016,05,04,16,42,20.60
2016,05,04,16,43,20.60
2016,05,04,16,44,20.60
2016,05,04,16,45,20.40
2016,05,04,16,46,20.40
2016,05,04,16,47,20.30
2016,05,04,16,48,20.30
2016,05,04,16,49,20.20
2016,05,04,16,50,20.30
2016,05,04,16,51,20.30
2016,05,04,16,52,20.40
2016,05,04,16,53,20.40
2016,05,04,16,54,20.60
2016,05,04,16,55,20.70
2016,05,04,16,56,20.70
2016,05,04,16,57,20.80
2016,05,04,16,58,20.80
2016,05,04,16,59,20.80
2016,05,04,17,00,20.80
2016,05,04,17,01,20.80
2016,05,04,17,02,20.80
2016,05,04,17,03,20.80
2016,05,04,17,04,20.80
2016,05,04,17,05,20.80
2016,05,04,17,06,20.80
2016,05,04,17,07,20.80
2016,05,04,17,08,20.90
2016,05,04,17,09,20.90
2016,05,04,17,10,20.90
2016,05,04,17,11,20.90
2016,05,04,17,12,20.80
2016,05,04,17,13,20.80
2016,05,04,17,14,20.80
2016,05,04,17,15,20.70
2016,05,04,17,16,20.60
2016,05,04,17,17,20.50
2016,05,04,17,18,20.40
2016,05,04,17,19,20.40
2016,05,04,17,20,20.30
2016,05,04,17,21,20.30
2016,05,04,17,22,20.20
2016,05,04,17,23,20.20
2016,05,04,17,24,20.20
2016,05,04,17,25,20.20
2016,05,04,17,26,20.20
2016,05,04,17,27,20.30
2016,05,04,17,28,20.40
2016,05,04,17,29,20.40
2016,05,04,17,30,20.40
2016,05,04,17,31,20.40